DLH165 ENBR-LOWW

Flight info

Callsign DLH165
Flight time 2h 13m
Altitude 37000
Route TINIG DCT NEDIK DCT HDO DCT EVIKU DCT BITSI DCT MIKOV MIKOV8W
Aircraft A339/H-SADE1E2E3GHIJ3J5M1P2RWXY/LB2D1

Departure

Time 2026-05-06 19:03
Airport Bergen Airport, Flesland (ENBR)

Arrival

Time 2026-05-06 21:17
Airport Vienna International Airport (LOWW)
Time Latitude Longitude Altitude Speed Heading
2026-05-06 18:34 60.28485 5.22664 169 ft 0 kts 80°
2026-05-06 18:47 60.28484 5.22646 169 ft 2 kts 80°
2026-05-06 18:47 60.28482 5.22613 169 ft 2 kts 46°
2026-05-06 18:47 60.28469 5.22580 168 ft 3 kts 18°
2026-05-06 18:48 60.28447 5.22571 167 ft 3 kts
2026-05-06 18:48 60.28434 5.22568 167 ft 0 kts 354°
2026-05-06 18:48 60.28412 5.22573 166 ft 5 kts 351°
2026-05-06 18:49 60.28379 5.22585 165 ft 0 kts 346°
2026-05-06 18:54 60.28460 5.22551 168 ft 19 kts 349°
2026-05-06 18:54 60.28592 5.22513 171 ft 20 kts 351°
2026-05-06 18:55 60.28684 5.22403 171 ft 13 kts 300°
2026-05-06 18:55 60.28757 5.22335 169 ft 14 kts 348°
2026-05-06 18:55 60.28860 5.22299 168 ft 14 kts 349°
2026-05-06 18:55 60.28963 5.22266 168 ft 17 kts 352°
2026-05-06 18:56 60.29083 5.22228 169 ft 19 kts 351°
2026-05-06 18:56 60.29196 5.22185 169 ft 13 kts 350°
2026-05-06 18:56 60.29314 5.22147 167 ft 22 kts 350°
2026-05-06 18:56 60.29476 5.22093 162 ft 23 kts 350°
2026-05-06 18:57 60.29629 5.22040 154 ft 16 kts 350°
2026-05-06 18:57 60.29748 5.21999 154 ft 19 kts 350°
2026-05-06 18:57 60.29877 5.21956 159 ft 18 kts 351°
2026-05-06 18:57 60.30001 5.21914 163 ft 18 kts 351°
2026-05-06 18:58 60.30122 5.21876 169 ft 17 kts 350°
2026-05-06 18:58 60.30240 5.21835 171 ft 18 kts 350°
2026-05-06 18:58 60.30362 5.21795 177 ft 17 kts 351°
2026-05-06 18:58 60.30477 5.21755 181 ft 17 kts 350°
2026-05-06 18:59 60.30575 5.21721 198 ft 10 kts 351°
2026-05-06 18:59 60.30644 5.21674 203 ft 10 kts 324°
2026-05-06 18:59 60.30662 5.21597 204 ft 0 kts 276°
2026-05-06 19:01 60.30662 5.21594 198 ft 2 kts 274°
2026-05-06 19:01 60.30635 5.21400 197 ft 9 kts 241°
2026-05-06 19:02 60.30587 5.21355 202 ft 7 kts 172°
2026-05-06 19:02 60.30522 5.21415 182 ft 13 kts 165°
2026-05-06 19:02 60.30475 5.21432 180 ft 29 kts 171°
2026-05-06 19:02 60.29859 5.21643 163 ft 145 kts 171°
2026-05-06 19:03 60.28637 5.22069 534 ft 194 kts 171°
2026-05-06 19:03 60.27275 5.22520 1707 ft 206 kts 173°
2026-05-06 19:03 60.25821 5.22993 2564 ft 224 kts 172°
2026-05-06 19:03 60.24216 5.23522 3223 ft 244 kts 172°
2026-05-06 19:04 60.22473 5.24100 3870 ft 261 kts 172°
2026-05-06 19:04 60.20679 5.24705 4830 ft 264 kts 172°
2026-05-06 19:04 60.18856 5.25320 5758 ft 267 kts 172°
2026-05-06 19:04 60.17005 5.25943 6702 ft 271 kts 173°
2026-05-06 19:05 60.15128 5.26570 7586 ft 276 kts 173°
2026-05-06 19:05 60.13217 5.27225 8490 ft 281 kts 171°
2026-05-06 19:05 60.11402 5.28800 9387 ft 290 kts 146°
2026-05-06 19:05 60.10019 5.31786 10282 ft 298 kts 122°
2026-05-06 19:06 60.09321 5.35723 11081 ft 305 kts 97°
2026-05-06 19:06 60.09456 5.39962 11878 ft 308 kts 72°
2026-05-06 19:06 60.10414 5.43771 12678 ft 308 kts 47°
2026-05-06 19:06 60.12036 5.46494 13526 ft 304 kts 22°
2026-05-06 19:07 60.14030 5.47653 14339 ft 296 kts 358°
2026-05-06 19:07 60.16033 5.47184 15074 ft 292 kts 340°
2026-05-06 19:07 60.18064 5.46075 15322 ft 313 kts 338°
2026-05-06 19:07 60.20257 5.45000 15532 ft 336 kts 342°
2026-05-06 19:08 60.22600 5.44202 16107 ft 345 kts 345°
2026-05-06 19:08 60.25002 5.43625 16764 ft 351 kts 346°
2026-05-06 19:08 60.27410 5.43199 16997 ft 354 kts 350°
2026-05-06 19:08 60.29896 5.43858 17049 ft 369 kts
2026-05-06 19:09 60.32261 5.46090 17054 ft 384 kts 27°
2026-05-06 19:09 60.34257 5.49765 17053 ft 396 kts 45°
2026-05-06 19:09 60.35823 5.54398 17045 ft 402 kts 56°
2026-05-06 19:09 60.36809 5.59766 17280 ft 416 kts 77°
2026-05-06 19:10 60.36961 5.65631 17819 ft 424 kts 95°
2026-05-06 19:10 60.36247 5.71404 18433 ft 426 kts 115°
2026-05-06 19:10 60.34740 5.76519 19021 ft 421 kts 135°
2026-05-06 19:10 60.32616 5.80456 19702 ft 410 kts 152°
2026-05-06 19:11 60.30271 5.83754 20234 ft 414 kts 153°
2026-05-06 19:11 60.27891 5.87090 20974 ft 417 kts 153°
2026-05-06 19:11 60.25513 5.90464 21610 ft 420 kts 153°
2026-05-06 19:11 60.23123 5.93874 22293 ft 424 kts 153°
2026-05-06 19:12 60.20701 5.97345 22889 ft 429 kts 153°
2026-05-06 19:12 60.18263 6.00841 23570 ft 432 kts 153°
2026-05-06 19:12 60.15809 6.04362 24136 ft 435 kts 153°
2026-05-06 19:12 60.13337 6.07903 24695 ft 437 kts 153°
2026-05-06 19:13 60.10859 6.11451 25264 ft 439 kts 153°
2026-05-06 19:13 60.08367 6.15021 25850 ft 442 kts 153°
2026-05-06 19:13 60.05883 6.18576 26336 ft 445 kts 153°
2026-05-06 19:13 60.03356 6.22178 26911 ft 447 kts 153°
2026-05-06 19:14 60.00825 6.25804 27496 ft 449 kts 153°
2026-05-06 19:14 59.98273 6.29468 28037 ft 452 kts 153°
2026-05-06 19:14 59.95706 6.33117 28568 ft 451 kts 155°
2026-05-06 19:14 59.93055 6.36442 29042 ft 452 kts 157°
2026-05-06 19:15 59.90386 6.39787 29590 ft 454 kts 157°
2026-05-06 19:15 59.87699 6.43150 30106 ft 457 kts 157°
2026-05-06 19:15 59.84996 6.46521 30509 ft 460 kts 156°
2026-05-06 19:15 59.82265 6.49913 30878 ft 464 kts 156°
2026-05-06 19:16 59.79519 6.53312 31294 ft 467 kts 156°
2026-05-06 19:16 59.76746 6.56740 31649 ft 470 kts 155°
2026-05-06 19:16 59.73955 6.60182 32015 ft 475 kts 155°
2026-05-06 19:16 59.71135 6.63650 32383 ft 479 kts 155°
2026-05-06 19:17 59.68301 6.67133 32701 ft 482 kts 155°
2026-05-06 19:17 59.65436 6.70646 32965 ft 485 kts 154°
2026-05-06 19:17 59.62594 6.74121 33203 ft 488 kts 154°
2026-05-06 19:17 59.59695 6.77659 33392 ft 490 kts 154°
2026-05-06 19:18 59.56788 6.81196 33575 ft 492 kts 154°
2026-05-06 19:18 59.53862 6.84747 33789 ft 493 kts 154°
2026-05-06 19:18 59.50942 6.88281 34035 ft 494 kts 154°
2026-05-06 19:18 59.48012 6.91819 34275 ft 494 kts 154°
2026-05-06 19:19 59.45086 6.95345 34527 ft 493 kts 154°
2026-05-06 19:19 59.42160 6.98866 34769 ft 493 kts 154°
2026-05-06 19:19 59.39243 7.02368 35016 ft 492 kts 154°
2026-05-06 19:19 59.36321 7.05868 35266 ft 492 kts 154°
2026-05-06 19:20 59.33403 7.09357 35521 ft 491 kts 154°
2026-05-06 19:20 59.30485 7.12839 35773 ft 491 kts 154°
2026-05-06 19:20 59.27573 7.16307 36023 ft 490 kts 154°
2026-05-06 19:20 59.24655 7.19773 36240 ft 490 kts 154°
2026-05-06 19:21 59.21739 7.23231 36484 ft 489 kts 154°
2026-05-06 19:21 59.18834 7.26669 36733 ft 489 kts 154°
2026-05-06 19:21 59.15922 7.30110 36957 ft 488 kts 154°
2026-05-06 19:22 59.10123 7.36943 37021 ft 486 kts 154°
2026-05-06 19:22 59.04333 7.43737 37022 ft 486 kts 154°
2026-05-06 19:23 58.98539 7.50507 37016 ft 485 kts 154°
2026-05-06 19:23 58.92760 7.57230 37014 ft 485 kts 154°
2026-05-06 19:24 58.87954 7.62804 37010 ft 484 kts 154°
2026-05-06 19:24 58.81232 7.70567 37005 ft 484 kts 154°
2026-05-06 19:25 58.75457 7.77209 37002 ft 483 kts 154°
2026-05-06 19:25 58.70653 7.82713 36995 ft 483 kts 154°
2026-05-06 19:26 58.64876 7.89309 36993 ft 482 kts 154°
2026-05-06 19:26 58.59098 7.95881 36987 ft 482 kts 154°
2026-05-06 19:27 58.53322 8.02425 36977 ft 482 kts 154°
2026-05-06 19:27 58.47551 8.08938 36978 ft 482 kts 154°
2026-05-06 19:28 58.41772 8.15436 36967 ft 482 kts 154°
2026-05-06 19:28 58.35993 8.21909 36962 ft 482 kts 154°
2026-05-06 19:29 58.30221 8.28350 36973 ft 481 kts 154°
2026-05-06 19:29 58.24443 8.34773 36968 ft 481 kts 154°
2026-05-06 19:30 58.18659 8.41177 36969 ft 480 kts 155°
2026-05-06 19:30 58.12913 8.47515 36971 ft 480 kts 155°
2026-05-06 19:31 58.07127 8.53873 36971 ft 480 kts 155°
2026-05-06 19:31 57.98466 8.63346 36973 ft 479 kts 155°
2026-05-06 19:32 57.92728 8.69592 36977 ft 479 kts 155°
2026-05-06 19:32 57.86963 8.75846 36977 ft 479 kts 155°
2026-05-06 19:33 57.81193 8.82084 36978 ft 478 kts 155°
2026-05-06 19:33 57.75420 8.88300 36977 ft 478 kts 155°
2026-05-06 19:34 57.69658 8.94479 36977 ft 477 kts 155°
2026-05-06 19:34 57.63886 9.00646 36982 ft 477 kts 155°
2026-05-06 19:35 57.58124 9.06779 36982 ft 477 kts 155°
2026-05-06 19:35 57.52398 9.12853 36984 ft 476 kts 155°
2026-05-06 19:36 57.46639 9.18939 36978 ft 476 kts 155°
2026-05-06 19:36 57.40884 9.24998 36996 ft 475 kts 155°
2026-05-06 19:37 57.35128 9.31038 36992 ft 475 kts 155°
2026-05-06 19:37 57.29380 9.37046 36985 ft 474 kts 155°
2026-05-06 19:38 57.23626 9.43038 36989 ft 474 kts 155°
2026-05-06 19:38 57.17893 9.48988 36991 ft 473 kts 155°
2026-05-06 19:39 57.12146 9.54929 36990 ft 473 kts 155°
2026-05-06 19:39 57.06406 9.60844 36993 ft 473 kts 155°
2026-05-06 19:40 57.00669 9.66733 36993 ft 472 kts 155°
2026-05-06 19:40 56.94972 9.72561 36993 ft 472 kts 155°
2026-05-06 19:41 56.89243 9.78401 36991 ft 471 kts 155°
2026-05-06 19:41 56.83506 9.84228 36985 ft 471 kts 155°
2026-05-06 19:42 56.77780 9.90025 36983 ft 471 kts 156°
2026-05-06 19:42 56.72053 9.95800 36978 ft 470 kts 156°
2026-05-06 19:43 56.66316 10.01566 36979 ft 470 kts 156°
2026-05-06 19:43 56.60582 10.07308 36976 ft 471 kts 156°
2026-05-06 19:44 56.54848 10.13030 36975 ft 471 kts 156°
2026-05-06 19:44 56.49108 10.18739 36973 ft 471 kts 156°
2026-05-06 19:45 56.43361 10.24434 36969 ft 471 kts 156°
2026-05-06 19:45 56.37643 10.30082 36966 ft 471 kts 156°
2026-05-06 19:46 56.31888 10.35747 36966 ft 471 kts 156°
2026-05-06 19:46 56.26134 10.41391 36963 ft 470 kts 156°
2026-05-06 19:47 56.20383 10.47013 36971 ft 470 kts 156°
2026-05-06 19:47 56.14668 10.52580 36968 ft 470 kts 156°
2026-05-06 19:48 56.08927 10.58154 36982 ft 469 kts 156°
2026-05-06 19:48 56.03178 10.63717 36958 ft 469 kts 156°
2026-05-06 19:49 55.97435 10.69254 36973 ft 469 kts 156°
2026-05-06 19:49 55.91694 10.74771 36972 ft 468 kts 156°
2026-05-06 19:50 55.85959 10.80263 36973 ft 468 kts 156°
2026-05-06 19:50 55.80223 10.85738 36973 ft 468 kts 156°
2026-05-06 19:51 55.74486 10.91195 36967 ft 468 kts 156°
2026-05-06 19:51 55.68743 10.96640 36968 ft 468 kts 156°
2026-05-06 19:52 55.63014 11.02053 36971 ft 468 kts 156°
2026-05-06 19:52 55.57267 11.07465 36970 ft 468 kts 156°
2026-05-06 19:53 55.51511 11.12868 36971 ft 468 kts 156°
2026-05-06 19:53 55.45755 11.18254 36972 ft 468 kts 156°
2026-05-06 19:54 55.39997 11.23623 36974 ft 468 kts 156°
2026-05-06 19:54 55.34227 11.28984 36975 ft 468 kts 156°
2026-05-06 19:55 55.28501 11.34289 36968 ft 468 kts 156°
2026-05-06 19:55 55.22728 11.39619 36976 ft 468 kts 156°
2026-05-06 19:56 55.16964 11.44923 36970 ft 468 kts 156°
2026-05-06 19:56 55.11200 11.50209 36969 ft 468 kts 156°
2026-05-06 19:57 55.05431 11.55482 36974 ft 468 kts 156°
2026-05-06 19:57 54.99669 11.60733 36964 ft 467 kts 156°
2026-05-06 19:58 54.93899 11.65973 36983 ft 467 kts 156°
2026-05-06 19:58 54.88133 11.71193 36955 ft 467 kts 156°
2026-05-06 19:59 54.82369 11.76393 36966 ft 467 kts 156°
2026-05-06 19:59 54.76652 11.81535 36965 ft 466 kts 156°
2026-05-06 20:00 54.70881 11.86710 36958 ft 466 kts 156°
2026-05-06 20:00 54.65127 11.91860 36954 ft 466 kts 156°
2026-05-06 20:01 54.59358 11.97008 36946 ft 465 kts 156°
2026-05-06 20:01 54.53608 12.02124 36951 ft 465 kts 156°
2026-05-06 20:02 54.47815 12.07092 36940 ft 463 kts 159°
2026-05-06 20:02 54.41905 12.11261 36938 ft 462 kts 161°
2026-05-06 20:03 54.35946 12.15428 36935 ft 462 kts 161°
2026-05-06 20:03 54.30002 12.19608 36934 ft 462 kts 161°
2026-05-06 20:04 54.24057 12.23775 36930 ft 461 kts 161°
2026-05-06 20:04 54.18114 12.27920 36920 ft 461 kts 161°
2026-05-06 20:05 54.12177 12.32047 36922 ft 461 kts 161°
2026-05-06 20:05 54.06274 12.36137 36908 ft 461 kts 161°
2026-05-06 20:06 54.00331 12.40242 36911 ft 461 kts 161°
2026-05-06 20:06 53.94393 12.44332 36908 ft 460 kts 161°
2026-05-06 20:07 53.88443 12.48417 36907 ft 460 kts 161°
2026-05-06 20:07 53.82513 12.52476 36911 ft 460 kts 161°
2026-05-06 20:08 53.76562 12.56537 36908 ft 460 kts 161°
2026-05-06 20:08 53.71607 12.59910 36910 ft 460 kts 162°
2026-05-06 20:09 53.66705 12.63236 36908 ft 460 kts 162°
2026-05-06 20:09 53.60914 12.67156 36905 ft 460 kts 162°
2026-05-06 20:10 53.54974 12.71165 36900 ft 460 kts 162°
2026-05-06 20:10 53.49031 12.75164 36897 ft 460 kts 162°
2026-05-06 20:11 53.43091 12.79149 36895 ft 460 kts 162°
2026-05-06 20:11 53.37146 12.83124 36898 ft 459 kts 162°
2026-05-06 20:12 53.32209 12.86417 36897 ft 459 kts 162°
2026-05-06 20:12 53.26270 12.90366 36889 ft 459 kts 162°
2026-05-06 20:13 53.20329 12.94306 36887 ft 459 kts 162°
2026-05-06 20:13 53.14389 12.98234 36885 ft 459 kts 162°
2026-05-06 20:14 53.08482 13.02128 36877 ft 459 kts 162°
2026-05-06 20:14 53.02501 13.06058 36877 ft 459 kts 162°
2026-05-06 20:15 52.96608 13.09920 36871 ft 458 kts 162°
2026-05-06 20:15 52.90663 13.13804 36868 ft 458 kts 162°
2026-05-06 20:16 52.84731 13.17669 36864 ft 458 kts 162°
2026-05-06 20:16 52.78794 13.21525 36858 ft 458 kts 162°
2026-05-06 20:17 52.72866 13.25364 36855 ft 457 kts 162°
2026-05-06 20:17 52.66935 13.29193 36847 ft 457 kts 162°
2026-05-06 20:18 52.61046 13.32985 36857 ft 457 kts 163°
2026-05-06 20:18 52.55127 13.36785 36850 ft 457 kts 163°
2026-05-06 20:19 52.49203 13.40577 36857 ft 456 kts 163°
2026-05-06 20:19 52.43287 13.44353 36858 ft 455 kts 163°
2026-05-06 20:20 52.37384 13.48110 36858 ft 455 kts 163°
2026-05-06 20:20 52.31482 13.51855 36857 ft 454 kts 163°
2026-05-06 20:21 52.25626 13.55560 36853 ft 454 kts 163°
2026-05-06 20:21 52.19732 13.59280 36848 ft 454 kts 163°
2026-05-06 20:22 52.13840 13.62987 36838 ft 454 kts 163°
2026-05-06 20:22 52.07934 13.66691 36829 ft 454 kts 163°
2026-05-06 20:23 52.02023 13.70390 36820 ft 455 kts 163°
2026-05-06 20:23 51.96110 13.74079 36815 ft 455 kts 163°
2026-05-06 20:24 51.90194 13.77759 36809 ft 456 kts 163°
2026-05-06 20:24 51.84264 13.81438 36810 ft 456 kts 163°
2026-05-06 20:25 51.78328 13.85109 36805 ft 457 kts 163°
2026-05-06 20:25 51.72420 13.88753 36809 ft 457 kts 164°
2026-05-06 20:26 51.66473 13.92410 36815 ft 457 kts 164°
2026-05-06 20:26 51.60531 13.96055 36810 ft 457 kts 164°
2026-05-06 20:27 51.54598 13.99684 36820 ft 456 kts 164°
2026-05-06 20:27 51.48658 14.03308 36809 ft 455 kts 164°
2026-05-06 20:28 51.42736 14.06910 36802 ft 454 kts 164°
2026-05-06 20:28 51.36846 14.10483 36804 ft 453 kts 164°
2026-05-06 20:29 51.30952 14.14047 36804 ft 452 kts 164°
2026-05-06 20:29 51.25081 14.17589 36801 ft 451 kts 164°
2026-05-06 20:30 51.16284 14.22877 36794 ft 449 kts 165°
2026-05-06 20:31 51.10475 14.26357 36796 ft 449 kts 165°
2026-05-06 20:31 51.04632 14.29849 36794 ft 448 kts 165°
2026-05-06 20:32 50.98786 14.33337 36792 ft 447 kts 165°
2026-05-06 20:32 50.92950 14.36703 36789 ft 444 kts 167°
2026-05-06 20:33 50.87002 14.39090 36784 ft 441 kts 172°
2026-05-06 20:33 50.81020 14.41273 36788 ft 440 kts 171°
2026-05-06 20:34 50.75054 14.43480 36787 ft 440 kts 171°
2026-05-06 20:34 50.69092 14.45686 36781 ft 440 kts 171°
2026-05-06 20:35 50.63133 14.47883 36778 ft 440 kts 171°
2026-05-06 20:35 50.57175 14.50074 36770 ft 440 kts 171°
2026-05-06 20:36 50.51216 14.52299 36768 ft 441 kts 169°
2026-05-06 20:36 50.45536 14.56144 36768 ft 451 kts 154°
2026-05-06 20:37 50.40608 14.62319 36769 ft 462 kts 141°
2026-05-06 20:37 50.36020 14.69394 36705 ft 463 kts 141°
2026-05-06 20:37 50.33709 14.72911 36453 ft 463 kts 141°
2026-05-06 20:38 50.31398 14.76408 36188 ft 463 kts 141°
2026-05-06 20:38 50.29079 14.79905 35930 ft 464 kts 141°
2026-05-06 20:38 50.26765 14.83390 35705 ft 457 kts 141°
2026-05-06 20:39 50.22208 14.90268 35104 ft 418 kts 142°
2026-05-06 20:39 50.20119 14.93403 34070 ft 418 kts 142°
2026-05-06 20:39 50.17998 14.96558 32457 ft 427 kts 142°
2026-05-06 20:39 50.15790 14.99827 30959 ft 443 kts 141°
2026-05-06 20:40 50.13527 15.03187 29809 ft 453 kts 141°
2026-05-06 20:40 50.11245 15.06594 29151 ft 453 kts 141°
2026-05-06 20:40 50.08976 15.09986 28871 ft 451 kts 141°
2026-05-06 20:40 50.06712 15.13363 28747 ft 451 kts 141°
2026-05-06 20:41 50.04442 15.16738 28763 ft 452 kts 141°
2026-05-06 20:41 49.99898 15.23474 28767 ft 452 kts 141°
2026-05-06 20:42 49.95341 15.30210 28768 ft 452 kts 141°
2026-05-06 20:42 49.90777 15.36939 28768 ft 452 kts 142°
2026-05-06 20:43 49.86207 15.43657 28768 ft 452 kts 142°
2026-05-06 20:43 49.81634 15.50361 28768 ft 453 kts 142°
2026-05-06 20:44 49.77077 15.57022 28763 ft 453 kts 142°
2026-05-06 20:44 49.72494 15.63704 28763 ft 453 kts 142°
2026-05-06 20:45 49.67906 15.70376 28754 ft 453 kts 143°
2026-05-06 20:45 49.63313 15.77031 28744 ft 453 kts 143°
2026-05-06 20:46 49.59503 15.82545 28603 ft 449 kts 143°
2026-05-06 20:46 49.57279 15.85771 28412 ft 429 kts 143°
2026-05-06 20:46 49.55163 15.88844 28166 ft 406 kts 143°
2026-05-06 20:46 49.52543 15.92638 27854 ft 375 kts 144°
2026-05-06 20:47 49.50697 15.95300 27598 ft 357 kts 144°
2026-05-06 20:47 49.49457 15.97070 27481 ft 358 kts 144°
2026-05-06 20:47 49.47661 15.99631 27393 ft 347 kts 144°
2026-05-06 20:47 49.45913 16.02133 27321 ft 338 kts 145°
2026-05-06 20:48 49.44222 16.04555 27099 ft 328 kts 145°
2026-05-06 20:48 49.42577 16.06902 26857 ft 328 kts 145°
2026-05-06 20:48 49.40890 16.09296 26600 ft 332 kts 145°
2026-05-06 20:48 49.39192 16.11709 26339 ft 332 kts 145°
2026-05-06 20:49 49.37504 16.14117 26084 ft 332 kts 144°
2026-05-06 20:49 49.35807 16.16536 25840 ft 332 kts 144°
2026-05-06 20:49 49.34067 16.19001 25583 ft 354 kts 144°
2026-05-06 20:49 49.32168 16.21628 25326 ft 380 kts 146°
2026-05-06 20:50 49.29976 16.24087 25116 ft 401 kts 153°
2026-05-06 20:50 49.27476 16.26158 24862 ft 411 kts 160°
2026-05-06 20:50 49.24893 16.28032 24615 ft 410 kts 160°
2026-05-06 20:50 49.22328 16.29915 24379 ft 408 kts 159°
2026-05-06 20:51 49.19771 16.31803 24139 ft 406 kts 159°
2026-05-06 20:51 49.17228 16.33684 23902 ft 405 kts 159°
2026-05-06 20:51 49.14695 16.35558 23669 ft 403 kts 159°
2026-05-06 20:51 49.12206 16.37395 23436 ft 402 kts 159°
2026-05-06 20:52 49.09664 16.39269 23188 ft 400 kts 159°
2026-05-06 20:52 49.07167 16.41107 22820 ft 397 kts 159°
2026-05-06 20:52 49.04726 16.42904 22277 ft 393 kts 159°
2026-05-06 20:52 49.02265 16.44711 21470 ft 392 kts 159°
2026-05-06 20:53 48.99791 16.46523 20501 ft 392 kts 159°
2026-05-06 20:53 48.97388 16.48289 19587 ft 376 kts 159°
2026-05-06 20:53 48.95044 16.50009 18231 ft 372 kts 159°
2026-05-06 20:53 48.92713 16.51710 16880 ft 368 kts 159°
2026-05-06 20:54 48.90418 16.53383 15624 ft 362 kts 158°
2026-05-06 20:54 48.88162 16.55027 14404 ft 357 kts 158°
2026-05-06 20:54 48.85949 16.56639 13087 ft 350 kts 158°
2026-05-06 20:54 48.83770 16.58225 11743 ft 344 kts 157°
2026-05-06 20:55 48.81660 16.59764 11062 ft 323 kts 157°
2026-05-06 20:55 48.79724 16.61182 10458 ft 300 kts 157°
2026-05-06 20:55 48.77802 16.62330 9321 ft 295 kts 166°
2026-05-06 20:55 48.75803 16.63031 7958 ft 296 kts 171°
2026-05-06 20:56 48.73772 16.63661 6673 ft 299 kts 171°
2026-05-06 20:56 48.71722 16.64311 5865 ft 308 kts 171°
2026-05-06 20:56 48.69686 16.64972 5367 ft 299 kts 171°
2026-05-06 20:56 48.67737 16.65621 5136 ft 273 kts 171°
2026-05-06 20:57 48.65957 16.66213 4998 ft 254 kts 171°
2026-05-06 20:57 48.64317 16.66760 4953 ft 227 kts 171°
2026-05-06 20:57 48.62804 16.67264 4957 ft 226 kts 172°
2026-05-06 20:57 48.61275 16.67753 4956 ft 223 kts 172°
2026-05-06 20:58 48.59766 16.68246 4959 ft 225 kts 172°
2026-05-06 20:58 48.58102 16.68774 4954 ft 259 kts 172°
2026-05-06 20:58 48.56313 16.69362 4955 ft 266 kts 171°
2026-05-06 20:58 48.54514 16.70019 4954 ft 266 kts 169°
2026-05-06 20:59 48.52718 16.70705 4957 ft 266 kts 169°
2026-05-06 20:59 48.50921 16.71388 4958 ft 265 kts 169°
2026-05-06 20:59 48.49132 16.72057 4960 ft 265 kts 170°
2026-05-06 20:59 48.47340 16.72716 4960 ft 265 kts 170°
2026-05-06 21:00 48.45550 16.73370 4962 ft 264 kts 170°
2026-05-06 21:00 48.43759 16.74019 4967 ft 266 kts 170°
2026-05-06 21:00 48.41968 16.74669 4963 ft 265 kts 170°
2026-05-06 21:00 48.40171 16.75324 4972 ft 265 kts 170°
2026-05-06 21:01 48.38379 16.75977 4972 ft 264 kts 170°
2026-05-06 21:01 48.36623 16.76617 4976 ft 263 kts 170°
2026-05-06 21:01 48.34844 16.77260 4975 ft 262 kts 170°
2026-05-06 21:01 48.33069 16.77905 4980 ft 262 kts 170°
2026-05-06 21:02 48.31295 16.78549 4981 ft 261 kts 170°
2026-05-06 21:02 48.29543 16.79184 4984 ft 258 kts 170°
2026-05-06 21:02 48.27786 16.79731 4979 ft 255 kts 179°
2026-05-06 21:02 48.26066 16.79333 4987 ft 250 kts 204°
2026-05-06 21:03 48.24674 16.77838 4992 ft 248 kts 228°
2026-05-06 21:03 48.23860 16.75577 4993 ft 250 kts 251°
2026-05-06 21:03 48.23432 16.73001 4992 ft 260 kts 254°
2026-05-06 21:03 48.23112 16.70279 5000 ft 278 kts 266°
2026-05-06 21:04 48.23528 16.67319 4997 ft 301 kts 290°
2026-05-06 21:04 48.24762 16.64733 4995 ft 311 kts 313°
2026-05-06 21:04 48.26619 16.63043 4993 ft 319 kts 336°
2026-05-06 21:04 48.28821 16.62380 4987 ft 326 kts 351°
2026-05-06 21:05 48.31057 16.62042 4982 ft 312 kts 351°
2026-05-06 21:05 48.33063 16.61635 4981 ft 278 kts 347°
2026-05-06 21:05 48.34967 16.61071 4978 ft 279 kts 343°
2026-05-06 21:05 48.36839 16.60378 4975 ft 276 kts 342°
2026-05-06 21:06 48.38682 16.59614 4974 ft 273 kts 341°
2026-05-06 21:06 48.40606 16.58780 4970 ft 300 kts 341°
2026-05-06 21:06 48.42638 16.57902 4962 ft 305 kts 341°
2026-05-06 21:06 48.44676 16.57028 4958 ft 305 kts 341°
2026-05-06 21:07 48.46718 16.56161 4954 ft 304 kts 341°
2026-05-06 21:07 48.48782 16.55282 4958 ft 319 kts 341°
2026-05-06 21:07 48.50932 16.54328 4942 ft 322 kts 337°
2026-05-06 21:07 48.52843 16.52609 4955 ft 319 kts 316°
2026-05-06 21:08 48.54172 16.49999 4949 ft 314 kts 294°
2026-05-06 21:08 48.54740 16.46851 4950 ft 311 kts 273°
2026-05-06 21:08 48.54472 16.43744 4942 ft 285 kts 250°
2026-05-06 21:08 48.53487 16.41375 4951 ft 255 kts 226°
2026-05-06 21:09 48.51942 16.39975 4954 ft 263 kts 200°
2026-05-06 21:09 48.50125 16.39770 4951 ft 268 kts 174°
2026-05-06 21:09 48.48357 16.40766 4954 ft 275 kts 155°
2026-05-06 21:09 48.46690 16.42197 4955 ft 276 kts 154°
2026-05-06 21:10 48.45006 16.43482 4955 ft 273 kts 159°
2026-05-06 21:10 48.43211 16.44381 4962 ft 272 kts 166°
2026-05-06 21:10 48.41382 16.45243 4965 ft 272 kts 166°
2026-05-06 21:10 48.39569 16.46076 4968 ft 273 kts 167°
2026-05-06 21:11 48.37748 16.46854 4974 ft 271 kts 168°
2026-05-06 21:11 48.35987 16.47597 4971 ft 255 kts 167°
2026-05-06 21:11 48.34327 16.48310 4981 ft 250 kts 168°
2026-05-06 21:11 48.32619 16.49030 4794 ft 260 kts 167°
2026-05-06 21:12 48.30898 16.49773 4443 ft 254 kts 168°
2026-05-06 21:12 48.29201 16.50493 4101 ft 252 kts 168°
2026-05-06 21:12 48.27523 16.51212 3763 ft 246 kts 168°
2026-05-06 21:12 48.25944 16.51886 3448 ft 223 kts 169°
2026-05-06 21:13 48.24554 16.52481 3170 ft 195 kts 169°
2026-05-06 21:13 48.23310 16.53009 2943 ft 175 kts 170°
2026-05-06 21:13 48.22184 16.53486 2723 ft 167 kts 171°
2026-05-06 21:13 48.21083 16.53953 2510 ft 156 kts 170°
2026-05-06 21:14 48.20113 16.54370 2313 ft 136 kts 171°
2026-05-06 21:14 48.19209 16.54747 2132 ft 133 kts 171°
2026-05-06 21:14 48.18354 16.55114 1946 ft 127 kts 171°
2026-05-06 21:14 48.17525 16.55463 1795 ft 127 kts 170°
2026-05-06 21:15 48.16689 16.55819 1632 ft 123 kts 169°
2026-05-06 21:15 48.15845 16.56170 1452 ft 121 kts 166°
2026-05-06 21:15 48.15048 16.56517 1293 ft 127 kts 165°
2026-05-06 21:15 48.14212 16.56868 1105 ft 118 kts 163°
2026-05-06 21:16 48.13404 16.57213 939 ft 127 kts 163°
2026-05-06 21:16 48.12594 16.57552 767 ft 112 kts 163°
2026-05-06 21:16 48.11837 16.57880 658 ft 121 kts 164°
2026-05-06 21:16 48.11049 16.58212 623 ft 103 kts 165°
2026-05-06 21:17 48.10555 16.58419 603 ft 45 kts 165°
2026-05-06 21:17 48.10419 16.58474 602 ft 12 kts 165°
2026-05-06 21:17 48.10356 16.58559 602 ft 13 kts 112°